Regional Weather Roundup
Issued by NWS

Home | Current Version | Previous Version | Graphics & Text | Print | Product List | Glossary On
Versions: 1 2 3 4 5 6 7 8 9 10 11 12 13 14 15 16 17 18 19 20 21 22 23 24 25 26 27 28 29 30 31 32 33 34 35 36 37 38 39 40 41 42 43 44 45 46 47 48 49 50
000
ASUS43 KMKX 280200
RWRWI

WISCONSIN REGIONAL WEATHER ROUNDUP
NATIONAL WEATHER SERVICE MILWAUKEE/SULLIVAN WI
900 PM CDT MON JUL 27 2015

NOTE: "FAIR" INDICATES FEW OR NO CLOUDS BELOW 12,000 FEET WITH NO
SIGNIFICANT WEATHER AND/OR OBSTRUCTIONS TO VISIBILITY.

WIZ001-002-006>008-014>016-023>028-280300-
NORTHWEST WISCONSIN

CITY           SKY/WX    TMP DP  RH WIND       PRES   REMARKS
SUPERIOR ARPT  CLOUDY    72  68  89 CALM      29.92S
ASHLAND        CLEAR     67  63  87 CALM      29.96R
HAYWARD        CLEAR     76  62  62 SE3       29.98R
SIREN          PTCLDY    79  67  66 SE6       29.94S HX  81
CUMBERLAND     PTCLDY    73  64  73 SE5       29.96S
RICE LAKE      PTCLDY    77  66  68 SE5       29.97F
CHETEK         CLOUDY    78  68  70 SE5       29.96S HX  80
LADYSMITH      CLEAR     77  65  68 E5        30.00S
EAU CLAIRE     NOT AVBL
MENOMONIE      CLEAR     78  70  76 E5        29.94S HX  80
NEW RICHMOND   CLEAR     77  68  75 SE3       29.94S
OSCEOLA        CLEAR     78  70  76 SE7       29.95S HX  80
$$

WIZ003>005-009-010-017-018-280300-
NORTH CENTRAL WISCONSIN

CITY           SKY/WX    TMP DP  RH WIND       PRES   REMARKS
MANITOWISH WTR CLEAR     70  65  82 S3        30.02R
ARBOR VITAE    CLEAR     77  63  62 S3        30.03R
WOODRUFF       CLEAR     77  63  62 S3        30.03R
RHINELANDER    CLEAR     75  61  61 SE3       30.04S
EAGLE RIVER    CLEAR     75  59  58 CALM      30.03S
LAND O LAKES   CLEAR     75  60  59 CALM      30.04S
PHILLIPS       CLEAR     76  65  69 SE3       30.00F
TOMAHAWK       PTCLDY    72  61  68 CALM      30.02S
MEDFORD        PTCLDY    74  65  74 E3        30.01S
MERRILL        NOT AVBL
$$

WIZ029-030-035-036-043>047-280300-
CENTRAL WISCONSIN

CITY           SKY/WX    TMP DP  RH WIND       PRES   REMARKS
WAUSAU         MOCLDY    77  64  64 E6        30.00R
MOSINEE        NOT AVBL
MARSHFIELD     MOCLDY    76  63  64 SE5       30.00R
STEVENS POINT  MOCLDY    75  63  66 CALM      30.01R
WAUPACA        MOCLDY    78  65  65 E3        29.99S HX  80
WAUTOMA        NOT AVBL
WISC RAPIDS    MOCLDY    77  61  57 SE6       30.01R
CAMP DOUGLAS   NOT AVBL
$$

WIZ011>013-019>022-031-037>040-048>050-280300-
NORTHEAST WISCONSIN

CITY           SKY/WX    TMP DP  RH WIND       PRES   REMARKS
ANTIGO         PTCLDY    71  64  79 CALM      30.04S
SHAWANO        PTCLDY    77  65  66 SE5       29.99F
OCONTO         CLEAR     73  69  88 CALM      29.99S
STURGEON BAY   CLEAR     73  59  60 S5        30.04S
GREEN BAY      CLEAR     72  64  76 SE6       29.99F
MANITOWOC      NOT AVBL
APPLETON       MOCLDY    79  61  53 VRB6      30.00F HX  80
CLINTONVILLE   MOCLDY    77  64  65 SE3       29.99F
OSHKOSH        MOCLDY    77  62  59 SE7       29.99S
$$

WIZ032>034-041-042-053>061-280300-
SOUTHWEST WISCONSIN

CITY           SKY/WX    TMP DP  RH WIND       PRES   REMARKS
LA CROSSE      PTCLDY    80  69  69 SE6       29.93S HX  83
SPARTA         PTCLDY    78  67  67 CALM      29.97S HX  80
VIROQUA        PTCLDY    76  69  79 SE5       29.98S
BOSCOBEL       PTCLDY    77  71  82 CALM      29.96S
PRAIRIE DU CHI MOCLDY    78  69  73 E3        29.95R HX  80
PLATTEVILLE    MOCLDY    78  73  83 E6        29.97F HX  80
$$

WIZ056-057-062-063-064-067-068-280300-
SOUTH CENTRAL WISCONSIN

CITY           SKY/WX    TMP DP  RH WIND       PRES   REMARKS
REEDSBURG      PTCLDY    77  68  72 SE3       29.97S
BARABOO/DELLS  PTCLDY    76  64  65 E5        29.99S
LONE ROCK      NOT AVBL
MINERAL POINT  MOCLDY    77  72  83 SE3       29.98F
MADISON        MOCLDY    78  64  61 SE8       29.98S HX  80
MIDDLETON      MOCLDY    79  62  55 SE6       30.00S HX  80
WATERTOWN      MOCLDY    74  63  68 CALM      29.99S
MONROE         MOCLDY    77  64  65 E6        30.00R
JANESVILLE     CLEAR     77  64  65 SE3       29.99R
$$

WIZ051-052-058>065-066-070>072-280300-
SOUTHEAST WISCONSIN

CITY           SKY/WX    TMP DP  RH WIND       PRES   REMARKS
MILWAUKEE      MOCLDY    73  66  78 NE3       30.01S
WAUKESHA       NOT AVBL
MILWAUKEE/TIMM CLEAR     75  61  60 CALM      30.02S
RACINE         MOCLDY    73  66  78 CALM      30.02S
BURLINGTON     MOCLDY    70  63  78 CALM      30.00F
KENOSHA        MOCLDY    69  62  78 E5        30.01S
FOND DU LAC    PTCLDY    75  62  64 SE8       30.00R
SHEBOYGAN      CLEAR     66  61  84 E3        30.01F
WEST BEND      PTCLDY    72  61  68 CALM      30.01F
JUNEAU           N/A     73  64  72 E6        30.01S
$$

LSZ147-162-280300-
LAKE SUPERIOR

STATION/POSITION TIME  TEMP    WIND        PRES    WAVE
                       AIR SEA DIR/SP/G            HT/PER
                 (UTC) (F)     (DEG/KT/KT) (MB)    (FT/S)
W MID LAKE BUOY  0050   66 64  110/  8/  8 1013.9F   0
DEVILS ISLAND    0100   74     110/ 10/ 10 1013.7R
PORT WING        0140   82     160/  3/  5 1013.5R
SAXON HARBOR     0100   76                 1013.5S
$$

LMZ867-665-643>646-280300-
LAKE MICHIGAN

STATION/POSITION TIME  TEMP    WIND        PRES    WAVE
                       AIR SEA DIR/SP/G            HT/PER
                 (UTC) (F)     (DEG/KT/KT) (MB)    (FT/S)
CHAMBERS ISLAND  0100   76     160/  1/  2 1015.6R
S GREEN BAY BUOY 0100   81 77  180/  8/ 10 1017.2
N MID LAKE BUOY  0050   73 71  220/  4/  4 1015.5S   0
NORTHPORT PIER   0100   78     200/  2/  3 1015.9R
SISTER BAY       0114   79        CALM       N/A
ALGOMA LAKESHORE 0112             CALM       N/A
KEWAUNEE LAKESHO 0100   70     170/  3/  5 1015.7R
SHEBOYGAN LAKESH 0100   75     100/  1/  2 1016.4R
PORT WASHINGTON  0100   76      40/  1/  3 1016.6S
ATWATER BUOY     0100   72     290/  2/  4 1017.5R
MILWAUKEE LAKESH 0100   74      30/  4/  4   N/A
KENOSHA   LAKESH 0100   74      20/  3/  5 1015.6R
$$

TC  - TEMPERATURE IN CELSIUS
VSB - VISIBILITY IN STATUTE MILES
WCI - WIND CHILL INDEX
HX  - HEAT INDEX



USA.gov is the U.S. government's official web portal to all federal, state and local government web resources and services.